| time (UTC) | temp F | wind direction | speed knots | gust knots | rain 1hr in | rain 24hr in | rain mn in | humidity % | barometer mb |
| 20260505230625 | 0 | 0.0 | 0.0 | 0.00 | 0.13 | 0.13 | 1012.1 | ||
| 20260505230121 | 0 | 0.0 | 0.0 | 0.00 | 0.13 | 0.13 | 1012.0 | ||
| 20260505225617 | 0 | 0.0 | 0.0 | 0.00 | 0.13 | 0.13 | 1012.0 | ||
| 20260505225114 | 0 | 0.0 | 0.0 | 0.00 | 0.13 | 0.13 | 1012.1 | ||
| 20260505224610 | 53 | 47 | 10.4 | 10.4 | 0.00 | 0.13 | 0.13 | 72 | 1012.0 |
| 20260505224108 | 53 | 47 | 10.4 | 10.4 | 0.00 | 0.13 | 0.13 | 72 | 1011.9 |
| 20260505223605 | 53 | 47 | 10.4 | 10.4 | 0.00 | 0.13 | 0.13 | 72 | 1011.7 |
| 20260505223101 | 53 | 47 | 10.4 | 10.4 | 0.02 | 0.13 | 0.13 | 72 | 1011.7 |
| 20260505222558 | 53 | 47 | 10.4 | 10.4 | 0.02 | 0.13 | 0.13 | 72 | 1011.7 |
| 20260505222054 | 53 | 47 | 10.4 | 10.4 | 0.00 | 0.13 | 0.13 | 72 | 1011.7 |
| 20260505221551 | 53 | 47 | 10.4 | 10.4 | 0.00 | 0.13 | 0.13 | 72 | 1011.6 |
| 20260505221047 | 53 | 47 | 10.4 | 10.4 | 0.00 | 0.13 | 0.13 | 72 | 1011.6 |
| 20260505220545 | 53 | 47 | 10.4 | 10.4 | 0.00 | 0.13 | 0.13 | 72 | 1011.7 |
| 20260505220043 | 53 | 47 | 10.4 | 10.4 | 0.00 | 0.13 | 0.13 | 72 | 1011.3 |
| 20260505215540 | 53 | 47 | 10.4 | 10.4 | 0.00 | 0.13 | 0.13 | 72 | 1011.7 |
| 20260505215038 | 53 | 47 | 10.4 | 10.4 | 0.00 | 0.13 | 0.13 | 72 | 1011.9 |
| 20260505214536 | 53 | 17 | 4.3 | 6.1 | 0.00 | 0.13 | 0.13 | 72 | 1012.5 |
| 20260505214032 | 53 | 17 | 4.3 | 6.1 | 0.00 | 0.13 | 0.13 | 72 | 1012.0 |
| 20260505213530 | 53 | 54 | 7.0 | 9.6 | 0.00 | 0.13 | 0.13 | 72 | 1011.7 |
| 20260505213026 | 53 | 46 | 8.7 | 9.6 | 0.02 | 0.13 | 0.13 | 72 | 1011.4 |
| 20260505212523 | 53 | 56 | 3.5 | 5.2 | 0.02 | 0.13 | 0.13 | 72 | 1010.8 |
| 20260505212020 | 53 | 26 | 10.4 | 16.5 | 0.00 | 0.12 | 0.12 | 72 | 1010.9 |
| 20260505211517 | 53 | 26 | 10.4 | 16.5 | 0.00 | 0.12 | 0.12 | 72 | 1011.2 |
| 20260505211014 | 53 | 26 | 10.4 | 16.5 | 0.02 | 0.12 | 0.12 | 72 | 1011.2 |
| 20260505210510 | 54 | 33 | 5.2 | 11.3 | 0.02 | 0.12 | 0.12 | 72 | 1011.5 |
| 20260505210008 | 55 | 132 | 3.5 | 5.2 | 0.02 | 0.12 | 0.12 | 72 | 1011.5 |
| 20260505205506 | 55 | 132 | 3.5 | 5.2 | 0.02 | 0.12 | 0.12 | 72 | 1011.9 |
| 20260505205003 | 55 | 132 | 3.5 | 5.2 | 0.00 | 0.11 | 0.11 | 72 | 1011.4 |
| 20260505204500 | 55 | 132 | 3.5 | 5.2 | 0.00 | 0.11 | 0.11 | 72 | 1011.7 |
| 20260505203957 | 55 | 132 | 3.5 | 5.2 | 0.00 | 0.11 | 0.11 | 72 | 1011.9 |
| 20260505203453 | 55 | 132 | 3.5 | 5.2 | 0.00 | 0.11 | 0.11 | 72 | 1011.7 |
| 20260505202950 | 55 | 132 | 3.5 | 5.2 | 0.00 | 0.11 | 0.11 | 72 | 1012.0 |
| 20260505202447 | 55 | 132 | 3.5 | 5.2 | 0.02 | 0.11 | 0.11 | 72 | 1012.2 |
| 20260505201943 | 55 | 132 | 3.5 | 5.2 | 0.00 | 0.11 | 0.11 | 72 | 1011.9 |
| 20260505201440 | 55 | 132 | 3.5 | 5.2 | 0.00 | 0.11 | 0.11 | 72 | 1012.0 |
| 20260505200938 | 55 | 132 | 3.5 | 5.2 | 0.00 | 0.11 | 0.11 | 72 | 1011.5 |
| 20260505200435 | 56 | 42 | 8.7 | 8.7 | 0.00 | 0.11 | 0.11 | 72 | 1011.4 |
| 20260505195930 | 56 | 42 | 8.7 | 8.7 | 0.00 | 0.11 | 0.11 | 72 | 1011.7 |
| 20260505195428 | 56 | 5 | 7.0 | 11.3 | 0.00 | 0.11 | 0.11 | 72 | 1011.8 |
| 20260505194925 | 56 | 5 | 7.0 | 11.3 | 0.00 | 0.11 | 0.11 | 72 | 1012.0 |
| 20260505194423 | 56 | 5 | 7.0 | 11.3 | 0.00 | 0.11 | 0.11 | 72 | 1012.1 |
| 20260505193922 | 56 | 5 | 7.0 | 11.3 | 0.00 | 0.11 | 0.11 | 72 | 1012.0 |
| 20260505193420 | 56 | 5 | 7.0 | 11.3 | 0.00 | 0.11 | 0.11 | 72 | 1011.7 |
| 20260505192918 | 56 | 5 | 7.0 | 11.3 | 0.00 | 0.11 | 0.11 | 72 | 1011.6 |
| 20260505192416 | 56 | 5 | 7.0 | 11.3 | 0.02 | 0.11 | 0.11 | 72 | 1011.5 |
| 20260505191913 | 56 | 5 | 7.0 | 11.3 | 0.02 | 0.11 | 0.11 | 72 | 1011.5 |
| 20260505191412 | 56 | 5 | 7.0 | 11.3 | 0.00 | 0.11 | 0.11 | 72 | 1011.9 |
| 20260505190908 | 56 | 5 | 7.0 | 11.3 | 0.02 | 0.11 | 0.11 | 72 | 1011.8 |
| 20260505190404 | 56 | 5 | 7.0 | 11.3 | 0.02 | 0.11 | 0.11 | 72 | 1011.7 |
| 20260505185859 | 57 | 53 | 3.5 | 6.1 | 0.02 | 0.10 | 0.10 | 72 | 1011.8 |
| 20260505185356 | 57 | 53 | 3.5 | 6.1 | 0.07 | 0.10 | 0.10 | 72 | 1011.5 |
| 20260505184852 | 62 | 97 | 3.5 | 3.5 | 0.12 | 0.10 | 0.10 | 73 | 1011.6 |
| 20260505184349 | 62 | 97 | 3.5 | 3.5 | 0.09 | 0.09 | 0.09 | 73 | 1011.8 |
| 20260505183846 | 62 | 97 | 3.5 | 3.5 | 0.05 | 0.08 | 0.08 | 73 | 1011.7 |
| 20260505183343 | 62 | 97 | 3.5 | 3.5 | 0.00 | 0.07 | 0.07 | 73 | 1012.0 |
| 20260505182840 | 62 | 97 | 3.5 | 3.5 | 0.02 | 0.07 | 0.07 | 73 | 1011.7 |
| 20260505182336 | 62 | 97 | 3.5 | 4.3 | 0.02 | 0.07 | 0.07 | 73 | 1011.5 |
| 20260505181833 | 62 | 113 | 3.5 | 4.3 | 0.00 | 0.07 | 0.07 | 73 | 1011.8 |
| 20260505181331 | 62 | 114 | 2.6 | 2.6 | 0.02 | 0.07 | 0.07 | 73 | 1011.3 |
| 20260505180827 | 62 | 111 | 0.9 | 2.6 | 0.02 | 0.07 | 0.07 | 73 | 1011.4 |
| 20260505180324 | 62 | 97 | 2.6 | 3.5 | 0.00 | 0.06 | 0.06 | 73 | 1011.5 |
| 20260505175820 | 62 | 72 | 2.6 | 2.6 | 0.02 | 0.06 | 0.06 | 73 | 1011.5 |
| 20260505175317 | 62 | 114 | 1.7 | 1.7 | 0.02 | 0.06 | 0.06 | 73 | 1011.4 |
| 20260505174813 | 62 | 121 | 2.6 | 3.5 | 0.02 | 0.06 | 0.06 | 73 | 1011.4 |
| 20260505174311 | 62 | 110 | 1.7 | 4.3 | 0.02 | 0.06 | 0.06 | 73 | 1011.7 |
| 20260505173806 | 62 | 105 | 1.7 | 4.3 | 0.02 | 0.06 | 0.06 | 73 | 1011.4 |
| 20260505173303 | 62 | 129 | 3.5 | 4.3 | 0.00 | 0.05 | 0.05 | 73 | 1011.5 |
| 20260505172800 | 62 | 129 | 3.5 | 4.3 | 0.00 | 0.05 | 0.05 | 73 | 1011.6 |
| 20260505172257 | 62 | 131 | 1.7 | 3.5 | 0.00 | 0.05 | 0.05 | 73 | 1011.8 |
| 20260505171752 | 0 | 0.0 | 0.0 | 0.00 | 0.05 | 0.05 | 1011.8 | ||
| 20260505171249 | 0 | 0.0 | 0.0 | 0.00 | 0.05 | 0.05 | 1011.9 | ||
| 20260505170746 | 0 | 0.0 | 0.0 | 0.00 | 0.05 | 0.05 | 1011.7 | ||
| 20260505170243 | 0 | 0.0 | 0.0 | 0.00 | 0.05 | 0.05 | 1011.5 | ||
| 20260505165738 | 0 | 0.0 | 0.0 | 0.00 | 0.05 | 0.05 | 1011.5 | ||
| 20260505165234 | 0 | 0.0 | 0.0 | 0.00 | 0.05 | 0.05 | 1011.5 | ||
| 20260505164730 | 0 | 0.0 | 0.0 | 0.00 | 0.05 | 0.05 | 1011.3 | ||
| 20260505164227 | 0 | 0.0 | 0.0 | 0.00 | 0.05 | 0.05 | 1011.3 | ||
| 20260505163725 | 0 | 0.0 | 0.0 | 0.00 | 0.05 | 0.05 | 1011.2 | ||
| 20260505163224 | 63 | 150 | 1.7 | 1.7 | 0.00 | 0.05 | 0.05 | 73 | 1011.5 |
| 20260505162721 | 63 | 150 | 1.7 | 1.7 | 0.00 | 0.05 | 0.05 | 73 | 1011.6 |
| 20260505162218 | 63 | 150 | 1.7 | 1.7 | 0.00 | 0.05 | 0.05 | 73 | 1011.5 |
| 20260505161714 | 63 | 150 | 1.7 | 1.7 | 0.00 | 0.05 | 0.05 | 73 | 1011.5 |
| 20260505161212 | 63 | 150 | 1.7 | 1.7 | 0.00 | 0.05 | 0.05 | 73 | 1011.4 |
| 20260505160709 | 63 | 150 | 1.7 | 1.7 | 0.00 | 0.05 | 0.05 | 73 | 1011.6 |
| 20260505160207 | 63 | 150 | 1.7 | 1.7 | 0.00 | 0.05 | 0.05 | 73 | 1011.7 |
| 20260505153146 | 0 | 0.0 | 0.0 | 0.00 | 0.05 | 0.05 | 1011.6 | ||
| 20260505152643 | 0 | 0.0 | 0.0 | 0.00 | 0.05 | 0.05 | 1011.8 | ||
| 20260505152138 | 0 | 0.0 | 0.0 | 0.00 | 0.05 | 0.05 | 1011.7 | ||
| 20260505151634 | 0 | 0.0 | 0.0 | 0.00 | 0.05 | 0.05 | 1011.7 | ||
| 20260505151132 | 0 | 0.0 | 0.0 | 0.00 | 0.05 | 0.05 | 1011.8 | ||
| 20260505150627 | 0 | 0.0 | 0.0 | 0.00 | 0.05 | 0.05 | 1011.8 | ||
| 20260505150125 | 0 | 0.0 | 0.0 | 0.00 | 0.05 | 0.05 | 1011.7 | ||
| 20260505140553 | 59 | 0 | 0.9 | 1.7 | 0.00 | 0.05 | 0.05 | 73 | 1011.9 |
| 20260505125007 | 59 | 120 | 0.0 | 0.0 | 0.00 | 0.05 | 0.05 | 73 | 1011.7 |
| 20260505124503 | 59 | 120 | 0.0 | 0.0 | 0.00 | 0.05 | 0.05 | 73 | 1011.5 |
| 20260505124000 | 59 | 264 | 2.6 | 2.6 | 0.00 | 0.05 | 0.05 | 73 | 1011.6 |
| 20260505123456 | 59 | 283 | 0.9 | 1.7 | 0.00 | 0.05 | 0.05 | 73 | 1011.5 |
| 20260505122952 | 59 | 162 | 0.9 | 0.9 | 0.00 | 0.05 | 0.05 | 73 | 1011.1 |
| 20260505122450 | 59 | 196 | 2.6 | 2.6 | 0.00 | 0.05 | 0.05 | 72 | 1011.1 |
| 20260505121946 | 59 | 180 | 0.0 | 0.9 | 0.00 | 0.05 | 0.05 | 72 | 1010.8 |
| 20260505121443 | 59 | 60 | 0.9 | 3.5 | 0.02 | 0.05 | 0.05 | 73 | 1010.8 |
| 20260505120939 | 59 | 156 | 2.6 | 2.6 | 0.02 | 0.05 | 0.05 | 73 | 1010.7 |
| 20260505120436 | 59 | 203 | 0.0 | 2.6 | 0.00 | 0.05 | 0.05 | 73 | 1010.7 |
| 20260505115935 | 59 | 157 | 2.6 | 5.2 | 0.00 | 0.05 | 0.05 | 72 | 1011.1 |
| 20260505115432 | 59 | 184 | 5.2 | 7.0 | 0.00 | 0.05 | 0.05 | 73 | 1010.8 |
| 20260505114930 | 59 | 176 | 1.7 | 7.0 | 0.00 | 0.05 | 0.05 | 72 | 1010.6 |
| 20260505114425 | 59 | 199 | 5.2 | 6.1 | 0.00 | 0.05 | 0.05 | 72 | 1010.6 |
| 20260505113922 | 59 | 150 | 5.2 | 6.1 | 0.00 | 0.05 | 0.05 | 72 | 1010.7 |
| 20260505113419 | 58 | 199 | 3.5 | 7.8 | 0.00 | 0.05 | 0.05 | 73 | 1010.4 |
| 20260505112914 | 59 | 149 | 2.6 | 6.1 | 0.00 | 0.05 | 0.05 | 72 | 1010.3 |
| 20260505112413 | 59 | 170 | 5.2 | 8.7 | 0.00 | 0.05 | 0.05 | 72 | 1010.3 |
| 20260505111908 | 59 | 195 | 7.8 | 7.8 | 0.00 | 0.05 | 0.05 | 72 | 1010.3 |
| 20260505111403 | 59 | 135 | 5.2 | 7.0 | 0.00 | 0.05 | 0.05 | 73 | 1010.3 |
| 20260505110859 | 59 | 132 | 6.1 | 6.1 | 0.00 | 0.05 | 0.05 | 73 | 1010.7 |
| 20260505110351 | 59 | 217 | 2.6 | 3.5 | 0.02 | 0.05 | 0.05 | 73 | 1011.0 |
| 20260505101821 | 60 | 198 | 3.5 | 3.5 | 0.05 | 0.01 | 0.01 | 73 | 1011.5 |
| 20260505101316 | 60 | 198 | 3.5 | 3.5 | 0.00 | 0.00 | 0.00 | 73 | 1011.5 |
| 20260505100812 | 60 | 198 | 3.5 | 3.5 | 0.00 | 0.00 | 0.00 | 73 | 1011.5 |
| 20260505100309 | 60 | 198 | 3.5 | 3.5 | 0.00 | 0.00 | 0.00 | 73 | 1011.1 |
| 20260505095805 | 60 | 198 | 3.5 | 3.5 | 0.00 | 0.00 | 0.00 | 73 | 1011.2 |
| 20260505095304 | 60 | 198 | 3.5 | 3.5 | 0.00 | 0.00 | 0.00 | 73 | 1011.3 |
| 20260505094758 | 60 | 156 | 1.7 | 2.6 | 0.00 | 0.00 | 0.00 | 73 | 1011.5 |
| 20260505094255 | 61 | 194 | 1.7 | 2.6 | 0.00 | 0.00 | 0.00 | 73 | 1011.2 |
| 20260505093751 | 61 | 194 | 1.7 | 2.6 | 0.00 | 0.00 | 0.00 | 73 | 1011.3 |
| 20260505093249 | 61 | 180 | 0.0 | 0.9 | 0.00 | 0.00 | 0.00 | 73 | 1011.2 |
| 20260505092746 | 61 | 192 | 0.9 | 1.7 | 0.00 | 0.00 | 0.00 | 73 | 1011.3 |
| 20260505092244 | 61 | 135 | 2.6 | 2.6 | 0.00 | 0.00 | 0.00 | 73 | 1011.0 |
| 20260505091741 | 61 | 135 | 2.6 | 2.6 | 0.00 | 0.00 | 0.00 | 73 | 1010.7 |
| 20260505091239 | 61 | 123 | 3.5 | 3.5 | 0.00 | 0.00 | 0.00 | 73 | 1010.5 |
| 20260505090736 | 61 | 127 | 2.6 | 2.6 | 0.00 | 0.00 | 0.00 | 73 | 1010.7 |
| 20260505090234 | 62 | 144 | 2.6 | 3.5 | 0.00 | 0.00 | 0.00 | 73 | 1010.7 |
| 20260505085731 | 62 | 144 | 2.6 | 3.5 | 0.00 | 0.00 | 0.00 | 73 | 1010.7 |
| 20260505085230 | 62 | 144 | 2.6 | 3.5 | 0.00 | 0.00 | 0.00 | 73 | 1010.8 |
| 20260505084727 | 62 | 144 | 2.6 | 3.5 | 0.00 | 0.00 | 0.00 | 73 | 1010.7 |
| 20260505084226 | 62 | 144 | 2.6 | 3.5 | 0.00 | 0.00 | 0.00 | 73 | 1010.5 |
| 20260505083722 | 62 | 144 | 2.6 | 3.5 | 0.00 | 0.00 | 0.00 | 73 | 1010.7 |
| 20260505083219 | 62 | 147 | 1.7 | 2.6 | 0.00 | 0.00 | 0.00 | 73 | 1010.7 |
| 20260505082715 | 62 | 147 | 1.7 | 2.6 | 0.00 | 0.00 | 0.00 | 73 | 1010.3 |
| 20260505082213 | 62 | 155 | 2.6 | 2.6 | 0.00 | 0.00 | 0.00 | 73 | 1010.6 |
| 20260505081708 | 62 | 174 | 0.9 | 1.7 | 0.00 | 0.00 | 0.00 | 73 | 1010.3 |
| 20260505081206 | 63 | 212 | 1.7 | 3.5 | 0.00 | 0.00 | 0.00 | 73 | 1010.5 |
| 20260505080703 | 63 | 212 | 1.7 | 3.5 | 0.00 | 0.00 | 0.00 | 73 | 1010.5 |
| 20260505080158 | 63 | 212 | 1.7 | 3.5 | 0.00 | 0.00 | 0.00 | 73 | 1010.7 |
| 20260505075654 | 63 | 212 | 1.7 | 3.5 | 0.00 | 0.00 | 0.00 | 73 | 1010.8 |
| 20260505075151 | 63 | 212 | 1.7 | 3.5 | 0.00 | 0.00 | 0.00 | 73 | 1010.6 |
| 20260505074648 | 63 | 212 | 1.7 | 3.5 | 0.00 | 0.00 | 0.00 | 73 | 1010.6 |
| 20260505074145 | 63 | 212 | 1.7 | 3.5 | 0.00 | 0.00 | 0.00 | 73 | 1010.7 |
| 20260505073643 | 63 | 202 | 3.5 | 5.2 | 0.00 | 0.00 | 0.00 | 73 | 1010.7 |
| 20260505073141 | 63 | 202 | 3.5 | 5.2 | 0.00 | 0.00 | 0.00 | 73 | 1010.8 |
| 20260505072636 | 63 | 202 | 3.5 | 5.2 | 0.00 | 0.00 | 0.00 | 73 | 1010.9 |
| 20260505072133 | 63 | 205 | 6.1 | 6.1 | 0.00 | 0.00 | 0.00 | 73 | 1010.7 |
| 20260505071629 | 63 | 209 | 5.2 | 8.7 | 0.00 | 0.00 | 0.00 | 73 | 1010.9 |
| 20260505071127 | 63 | 203 | 6.1 | 6.1 | 0.00 | 0.00 | 0.00 | 73 | 1010.8 |
| 20260505070624 | 63 | 206 | 7.0 | 10.4 | 0.00 | 0.00 | 0.00 | 73 | 1010.8 |
| 20260505070120 | 63 | 214 | 2.6 | 6.1 | 0.00 | 0.00 | 0.00 | 73 | 1010.9 |
| 20260505065616 | 63 | 214 | 2.6 | 6.1 | 0.00 | 0.00 | 0.00 | 73 | 1010.8 |
| 20260505065112 | 63 | 214 | 2.6 | 6.1 | 0.00 | 0.00 | 0.00 | 73 | 1010.9 |
| 20260505064609 | 63 | 214 | 2.6 | 6.1 | 0.00 | 0.00 | 0.00 | 73 | 1010.9 |
| 20260505064108 | 63 | 176 | 3.5 | 6.1 | 0.00 | 0.00 | 0.00 | 73 | 1011.1 |
| 20260505063605 | 63 | 190 | 2.6 | 2.6 | 0.00 | 0.00 | 0.00 | 73 | 1011.0 |
| 20260505063101 | 62 | 198 | 4.3 | 6.1 | 0.00 | 0.00 | 0.00 | 73 | 1011.1 |
| 20260505062557 | 62 | 154 | 2.6 | 2.6 | 0.00 | 0.00 | 0.00 | 73 | 1010.8 |
| 20260505062055 | 63 | 144 | 1.7 | 7.0 | 0.00 | 0.00 | 0.00 | 73 | 1011.0 |
| 20260505061552 | 63 | 144 | 1.7 | 7.0 | 0.00 | 0.00 | 0.00 | 73 | 1011.1 |
| 20260505061050 | 63 | 144 | 1.7 | 7.0 | 0.00 | 0.00 | 0.00 | 73 | 1011.3 |
| 20260505060547 | 63 | 189 | 3.5 | 3.5 | 0.00 | 0.00 | 0.00 | 73 | 1011.4 |
| 20260505060044 | 63 | 189 | 3.5 | 3.5 | 0.00 | 0.00 | 0.00 | 73 | 1011.6 |
| 20260505055539 | 63 | 189 | 3.5 | 3.5 | 0.00 | 0.00 | 0.00 | 73 | 1012.0 |
| 20260505055036 | 63 | 189 | 3.5 | 3.5 | 0.00 | 0.00 | 0.00 | 73 | 1011.9 |
| 20260505054533 | 63 | 189 | 3.5 | 3.5 | 0.00 | 0.00 | 0.00 | 73 | 1011.9 |
| 20260505054032 | 63 | 189 | 3.5 | 3.5 | 0.00 | 0.00 | 0.00 | 73 | 1012.0 |
| 20260505053528 | 63 | 184 | 3.5 | 6.1 | 0.00 | 0.00 | 0.00 | 73 | 1011.7 |
| 20260505053025 | 63 | 184 | 3.5 | 6.1 | 0.00 | 0.00 | 0.00 | 73 | 1011.8 |
| 20260505052522 | 63 | 160 | 2.6 | 3.5 | 0.00 | 0.00 | 0.00 | 73 | 1011.8 |
| 20260505052019 | 64 | 185 | 4.3 | 7.0 | 0.00 | 0.00 | 0.00 | 73 | 1011.6 |
| 20260505051516 | 65 | 181 | 4.3 | 7.0 | 0.00 | 0.00 | 0.00 | 73 | 1012.1 |
| 20260505051014 | 65 | 181 | 4.3 | 7.0 | 0.00 | 0.00 | 0.00 | 73 | 1012.0 |
| 20260505050512 | 65 | 199 | 7.8 | 7.8 | 0.00 | 0.00 | 0.00 | 73 | 1012.2 |
| 20260505041439 | 66 | 195 | 3.5 | 6.1 | 0.00 | 0.00 | 0.00 | 73 | 1012.4 |
| 20260505040937 | 66 | 211 | 2.6 | 7.8 | 0.00 | 0.00 | 0.00 | 73 | 1012.3 |
| 20260505040434 | 66 | 234 | 4.3 | 4.3 | 0.00 | 0.00 | 0.00 | 73 | 1012.3 |
| 20260505035931 | 66 | 234 | 4.3 | 4.3 | 0.00 | 0.00 | 0.00 | 73 | 1012.6 |
| 20260505035427 | 67 | 221 | 5.2 | 7.8 | 0.00 | 0.00 | 0.00 | 73 | 1012.5 |
| 20260505034924 | 67 | 221 | 5.2 | 7.8 | 0.00 | 0.00 | 0.00 | 73 | 1012.7 |
| 20260505034421 | 67 | 213 | 4.3 | 7.0 | 0.00 | 0.00 | 0.00 | 73 | 1012.6 |
| 20260505033918 | 67 | 191 | 2.6 | 7.0 | 0.00 | 0.00 | 0.00 | 73 | 1012.7 |
| 20260505033414 | 67 | 205 | 5.2 | 7.0 | 0.00 | 0.00 | 0.00 | 73 | 1012.6 |
| 20260505032913 | 67 | 197 | 5.2 | 9.6 | 0.00 | 0.00 | 0.00 | 73 | 1012.8 |
| 20260505032409 | 68 | 209 | 4.3 | 4.3 | 0.00 | 0.00 | 0.00 | 73 | 1012.7 |
| 20260505031906 | 68 | 203 | 9.6 | 10.4 | 0.00 | 0.00 | 0.00 | 73 | 1012.6 |
| 20260505031403 | 68 | 192 | 5.2 | 12.2 | 0.00 | 0.00 | 0.00 | 73 | 1012.6 |
| 20260505030900 | 68 | 186 | 3.5 | 11.3 | 0.00 | 0.00 | 0.00 | 74 | 1012.7 |
| 20260505030356 | 68 | 194 | 3.5 | 6.1 | 0.00 | 0.00 | 0.00 | 73 | 1012.6 |
| 20260505025851 | 68 | 180 | 2.6 | 11.3 | 0.00 | 0.00 | 0.00 | 73 | 1012.4 |
| 20260505025349 | 68 | 219 | 10.4 | 11.3 | 0.00 | 0.00 | 0.00 | 74 | 1012.2 |
| 20260505024848 | 68 | 202 | 6.1 | 10.4 | 0.00 | 0.00 | 0.00 | 73 | 1012.3 |
| 20260505024345 | 68 | 202 | 8.7 | 12.2 | 0.00 | 0.00 | 0.00 | 74 | 1012.2 |
| 20260505023842 | 68 | 203 | 7.8 | 10.4 | 0.00 | 0.00 | 0.00 | 74 | 1012.2 |
| 20260505023339 | 69 | 194 | 6.1 | 13.0 | 0.00 | 0.00 | 0.00 | 74 | 1012.0 |
| 20260505022836 | 68 | 214 | 7.0 | 8.7 | 0.00 | 0.00 | 0.00 | 74 | 1012.1 |
| 20260505022333 | 69 | 203 | 6.1 | 8.7 | 0.00 | 0.00 | 0.00 | 74 | 1012.0 |
| 20260505021830 | 69 | 206 | 7.0 | 7.8 | 0.00 | 0.00 | 0.00 | 74 | 1011.9 |
| 20260505021327 | 69 | 198 | 5.2 | 7.0 | 0.00 | 0.00 | 0.00 | 74 | 1012.0 |
| 20260505020822 | 69 | 203 | 5.2 | 6.1 | 0.00 | 0.00 | 0.00 | 74 | 1011.7 |
| 20260505020318 | 69 | 205 | 5.2 | 10.4 | 0.00 | 0.00 | 0.00 | 74 | 1011.9 |
| 20260505015815 | 70 | 204 | 8.7 | 8.7 | 0.00 | 0.00 | 0.00 | 74 | 1011.5 |
| 20260505015313 | 70 | 208 | 5.2 | 7.8 | 0.00 | 0.00 | 0.00 | 74 | 1011.4 |
| 20260505014810 | 70 | 210 | 6.1 | 9.6 | 0.00 | 0.00 | 0.00 | 74 | 1011.3 |
| 20260505014307 | 70 | 200 | 4.3 | 6.1 | 0.00 | 0.00 | 0.00 | 74 | 1011.5 |
| 20260505013803 | 70 | 212 | 4.3 | 7.8 | 0.00 | 0.00 | 0.00 | 74 | 1011.3 |
| 20260505013300 | 70 | 198 | 3.5 | 5.2 | 0.00 | 0.00 | 0.00 | 74 | 1011.3 |
| 20260505012759 | 71 | 204 | 6.1 | 8.7 | 0.00 | 0.00 | 0.00 | 74 | 1011.4 |
| 20260505012256 | 71 | 203 | 7.8 | 11.3 | 0.00 | 0.00 | 0.00 | 74 | 1011.2 |
| 20260505011752 | 71 | 200 | 5.2 | 7.0 | 0.00 | 0.00 | 0.00 | 74 | 1011.2 |
| 20260505011249 | 71 | 207 | 7.8 | 10.4 | 0.00 | 0.00 | 0.00 | 74 | 1011.2 |
| 20260505010744 | 71 | 203 | 4.3 | 7.8 | 0.00 | 0.00 | 0.00 | 74 | 1011.2 |
| 20260505010241 | 72 | 212 | 5.2 | 7.8 | 0.00 | 0.00 | 0.00 | 74 | 1011.0 |
| 20260505005737 | 72 | 218 | 4.3 | 9.6 | 0.00 | 0.00 | 0.00 | 74 | 1011.1 |
| 20260505005234 | 72 | 209 | 8.7 | 11.3 | 0.00 | 0.00 | 0.00 | 74 | 1010.9 |
| 20260505004731 | 72 | 159 | 2.6 | 11.3 | 0.00 | 0.00 | 0.00 | 74 | 1011.1 |
| 20260505004228 | 73 | 202 | 9.6 | 11.3 | 0.00 | 0.00 | 0.00 | 74 | 1010.9 |
| 20260505003725 | 73 | 225 | 7.8 | 10.4 | 0.00 | 0.00 | 0.00 | 74 | 1011.1 |
| 20260505003223 | 74 | 204 | 3.5 | 12.2 | 0.00 | 0.00 | 0.00 | 74 | 1010.8 |
| 20260505002719 | 74 | 243 | 1.7 | 10.4 | 0.00 | 0.00 | 0.00 | 74 | 1011.2 |
| 20260505002217 | 74 | 205 | 5.2 | 12.2 | 0.00 | 0.00 | 0.00 | 74 | 1010.9 |
| 20260505001714 | 75 | 212 | 7.0 | 11.3 | 0.00 | 0.00 | 0.00 | 74 | 1010.8 |
| 20260505001211 | 75 | 218 | 11.3 | 11.3 | 0.00 | 0.00 | 0.00 | 74 | 1010.8 |
| 20260505000708 | 76 | 206 | 9.6 | 10.4 | 0.00 | 0.00 | 0.00 | 74 | 1010.8 |
| 20260505000206 | 75 | 206 | 7.8 | 13.0 | 0.00 | 0.00 | 0.00 | 74 | 1010.7 |
| 20260504235702 | 76 | 223 | 6.1 | 16.5 | 0.00 | 0.00 | 0.00 | 74 | 1010.7 |
| 20260504235158 | 76 | 203 | 9.6 | 9.6 | 0.00 | 0.00 | 0.00 | 75 | 1010.8 |
| 20260504234656 | 76 | 207 | 12.2 | 18.2 | 0.00 | 0.00 | 0.00 | 74 | 1010.8 |
| 20260504234153 | 76 | 207 | 9.6 | 13.9 | 0.00 | 0.00 | 0.00 | 75 | 1010.8 |
| 20260504233649 | 76 | 204 | 10.4 | 13.9 | 0.00 | 0.00 | 0.00 | 75 | 1011.0 |
| 20260504233145 | 76 | 204 | 7.0 | 15.6 | 0.00 | 0.00 | 0.00 | 75 | 1010.8 |
| 20260504232643 | 77 | 200 | 4.3 | 7.8 | 0.00 | 0.00 | 0.00 | 75 | 1010.8 |
| 20260504232139 | 78 | 222 | 7.8 | 18.2 | 0.00 | 0.00 | 0.00 | 75 | 1010.9 |
| 20260504231636 | 77 | 207 | 10.4 | 19.1 | 0.00 | 0.00 | 0.00 | 75 | 1011.1 |
| 20260504231132 | 78 | 231 | 16.5 | 16.5 | 0.00 | 0.00 | 0.00 | 75 | 1010.9 |